Pampa / Mesa Vista, TX

7:23 PM CDT on March 28, 2017 (GMT -0500)
Pampa / Mesa Vista

Weather History for KBPC - July, 2013

Change the Weather History Date:

Thursday, July 4, 2013

  Actual Average (KBGD) Record (KBGD)
Temperature  
Mean Temperature 76 °F -  
Max Temperature 91 °F 91 °F 104 °F (1980)
Min Temperature 62 °F 67 °F 54 °F (1972)
Cooling Degree Days 12    
Growing Degree Days 26 (Base 50)    
Moisture  
Dew Point 44 °F    
Average Humidity 31    
Maximum Humidity 52    
Minimum Humidity 21    
Precipitation  
Precipitation 0.00 in - - ()
Sea Level Pressure  
Sea Level Pressure 29.97 in    
Wind  
Wind Speed 11 mph (South)    
Max Wind Speed 21 mph    
Max Gust Speed 29 mph    
Visibility 10 miles    
Events      
Averages and records for this station are not official NWS values.
T = Trace of Precipitation, MM = Missing Value Source: NWS Daily Summary

Daily Weather History Graph

Daily Weather History Graph

Search for Another Location

Airport or City:

Trip Planner

Search our weather history database for the weather conditions in past years. The results will help you decide how hot, cold, wet, or windy it might be!

Date:

Astronomy

Jul. 04, 2013 Rise Set
Actual Time 6:32 AM CDT 9:04 PM CDT
Civil Twilight 6:02 AM CDT 9:34 PM CDT
Nautical Twilight 5:25 AM CDT 10:11 PM CDT
Astronomical Twilight 4:44 AM CDT 10:52 PM CDT
Moon 3:48 AM CDT (7/4) 6:12 PM CDT (7/4)
Length of Visible Light 15h 31m
Length of Day
14h 31m
Waning Crescent, 11% of the Moon is Illuminated
Jul 4
Waning Crescent
Jul 8
New
Jul 15
First Quarter
Jul 22
Full
Jul 29
Last Quarter

Hourly Weather History & Observations

Time (CDT) Temp. Dew Point Humidity Pressure Visibility Wind Dir Wind Speed Gust Speed Precip Events Conditions
12:15 AM 71.6 °F 41.0 °F 33% 30.00 in 10.0 mi SSE 10.4 mph - N/A   Scattered Clouds
12:35 AM 71.6 °F 41.0 °F 33% 30.00 in 10.0 mi SSE 11.5 mph - N/A   Scattered Clouds
12:55 AM 71.6 °F 41.0 °F 33% 30.00 in 10.0 mi SSE 11.5 mph - N/A   Scattered Clouds
1:15 AM 73.4 °F 41.0 °F 31% 30.00 in 10.0 mi SSE 11.5 mph - N/A   Scattered Clouds
1:35 AM 71.6 °F 41.0 °F 33% 30.00 in 10.0 mi SSE 10.4 mph - N/A   Mostly Cloudy
1:55 AM 71.6 °F 41.0 °F 33% 30.01 in 10.0 mi SSE 8.1 mph - N/A   Mostly Cloudy
2:15 AM 69.8 °F 41.0 °F 35% 30.01 in 10.0 mi SSE 3.5 mph - N/A   Scattered Clouds
2:35 AM 69.8 °F 41.0 °F 35% 30.01 in 10.0 mi South 4.6 mph - N/A   Scattered Clouds
2:55 AM 68.0 °F 41.0 °F 37% 30.01 in 10.0 mi Calm Calm - N/A   Clear
3:15 AM 66.2 °F 42.8 °F 43% 30.01 in 10.0 mi South 8.1 mph - N/A   Clear
3:35 AM 64.4 °F 42.8 °F 45% 30.01 in 10.0 mi South 5.8 mph - N/A   Clear
3:55 AM 66.2 °F 42.8 °F 43% 30.01 in 10.0 mi SSW 5.8 mph - N/A   Clear
4:15 AM 64.4 °F 42.8 °F 45% 30.00 in 10.0 mi SSE 9.2 mph - N/A   Clear
4:35 AM 68.0 °F 44.6 °F 43% 30.00 in 10.0 mi South 11.5 mph - N/A   Scattered Clouds
4:55 AM 68.0 °F 44.6 °F 43% 30.00 in 10.0 mi South 6.9 mph - N/A   Mostly Cloudy
5:15 AM 68.0 °F 44.6 °F 43% 29.99 in 10.0 mi South 8.1 mph - N/A   Scattered Clouds
5:35 AM 68.0 °F 42.8 °F 40% 29.98 in 10.0 mi South 15.0 mph - N/A   Scattered Clouds
5:55 AM 68.0 °F 42.8 °F 40% 29.98 in 10.0 mi South 13.8 mph 17.3 mph N/A   Clear
6:15 AM 68.0 °F 42.8 °F 40% 29.98 in 10.0 mi South 16.1 mph 23.0 mph N/A   Clear
6:35 AM 68.0 °F 42.8 °F 40% 29.99 in 10.0 mi South 15.0 mph 19.6 mph N/A   Clear
6:55 AM 64.4 °F 42.8 °F 45% 30.00 in 10.0 mi SW 9.2 mph - N/A   Clear
7:15 AM 64.4 °F 44.6 °F 49% 30.01 in 10.0 mi SSW 9.2 mph - N/A   Clear
7:35 AM 62.6 °F 44.6 °F 52% 30.01 in 10.0 mi Calm Calm - N/A   Clear
7:55 AM 66.2 °F 44.6 °F 46% 30.00 in 10.0 mi South 10.4 mph - N/A   Clear
8:15 AM 69.8 °F 42.8 °F 38% 30.00 in 10.0 mi South 12.7 mph - N/A   Clear
8:35 AM 71.6 °F 42.8 °F 35% 30.01 in 10.0 mi SSW 10.4 mph 17.3 mph N/A   Clear
8:55 AM 71.6 °F 42.8 °F 35% 30.01 in 10.0 mi SSW 12.7 mph - N/A   Clear
9:15 AM 73.4 °F 44.6 °F 36% 30.01 in 10.0 mi SSW 17.3 mph - N/A   Clear
9:35 AM 75.2 °F 44.6 °F 34% 30.01 in 10.0 mi SSW 18.4 mph 23.0 mph N/A   Clear
9:55 AM 77.0 °F 44.6 °F 32% 30.02 in 10.0 mi South 16.1 mph - N/A   Clear
10:15 AM 77.0 °F 44.6 °F 32% 30.03 in 10.0 mi SW 18.4 mph 21.9 mph N/A   Scattered Clouds
10:35 AM 78.8 °F 46.4 °F 32% 30.01 in 10.0 mi SSW 20.7 mph 25.3 mph N/A   Scattered Clouds
10:55 AM 80.6 °F 44.6 °F 28% 30.01 in 10.0 mi SSW 18.4 mph 25.3 mph N/A   Scattered Clouds
11:15 AM 82.4 °F 44.6 °F 26% 30.01 in 10.0 mi SSW 17.3 mph 26.5 mph N/A   Scattered Clouds
11:35 AM 82.4 °F 44.6 °F 26% 30.01 in 10.0 mi South 20.7 mph 26.5 mph N/A   Clear
11:55 AM 82.4 °F 44.6 °F 26% 30.01 in 10.0 mi South 20.7 mph 26.5 mph N/A   Clear
12:15 PM 86.0 °F 44.6 °F 23% 30.01 in 10.0 mi South 16.1 mph 24.2 mph N/A   Clear
12:35 PM 86.0 °F 44.6 °F 23% 30.00 in 10.0 mi South 16.1 mph 24.2 mph N/A   Clear
12:55 PM 86.0 °F 46.4 °F 25% 30.00 in 10.0 mi SSW 13.8 mph 23.0 mph N/A   Scattered Clouds
1:15 PM 86.0 °F 46.4 °F 25% 30.00 in 10.0 mi SW 10.4 mph 20.7 mph N/A   Scattered Clouds
1:35 PM 87.8 °F 46.4 °F 24% 30.00 in 10.0 mi South 12.7 mph 23.0 mph N/A   Scattered Clouds
1:55 PM 87.8 °F 46.4 °F 24% 29.99 in 10.0 mi South 15.0 mph 23.0 mph N/A   Scattered Clouds
2:15 PM 87.8 °F 46.4 °F 24% 29.98 in 10.0 mi SW 15.0 mph 24.2 mph N/A   Clear
2:35 PM 87.8 °F 46.4 °F 24% 29.97 in 10.0 mi South 15.0 mph 19.6 mph N/A   Clear
2:55 PM 89.6 °F 46.4 °F 22% 29.96 in 10.0 mi South 13.8 mph 19.6 mph N/A   Clear
3:15 PM 89.6 °F 46.4 °F 22% 29.95 in 10.0 mi SE 8.1 mph 24.2 mph N/A   Clear
3:35 PM 91.4 °F 46.4 °F 21% 29.95 in 10.0 mi SW 8.1 mph 28.8 mph N/A   Scattered Clouds
3:55 PM 89.6 °F 46.4 °F 22% 29.94 in 10.0 mi SSW 15.0 mph 19.6 mph N/A   Mostly Cloudy
4:15 PM 89.6 °F 46.4 °F 22% 29.94 in 10.0 mi SSW 13.8 mph 19.6 mph N/A   Scattered Clouds
4:35 PM 89.6 °F 46.4 °F 22% 29.94 in 10.0 mi SSW 15.0 mph 19.6 mph N/A   Scattered Clouds
4:55 PM 89.6 °F 46.4 °F 22% 29.93 in 10.0 mi SW 12.7 mph 21.9 mph N/A   Scattered Clouds
5:15 PM 91.4 °F 46.4 °F 21% 29.92 in 10.0 mi South 10.4 mph 21.9 mph N/A   Scattered Clouds
5:35 PM 87.8 °F 46.4 °F 24% 29.92 in 10.0 mi SSW 9.2 mph - N/A   Scattered Clouds
5:55 PM 89.6 °F 46.4 °F 22% 29.91 in 10.0 mi SSW 11.5 mph 23.0 mph N/A   Scattered Clouds
6:15 PM 89.6 °F 46.4 °F 22% 29.91 in 10.0 mi South 11.5 mph 20.7 mph N/A   Clear
6:35 PM 87.8 °F 46.4 °F 24% 29.90 in 10.0 mi South 13.8 mph 18.4 mph N/A   Clear
6:55 PM 89.6 °F 46.4 °F 22% 29.90 in 10.0 mi South 18.4 mph - N/A   Scattered Clouds
7:15 PM 89.6 °F 44.6 °F 21% 29.89 in 10.0 mi SSW 15.0 mph 19.6 mph N/A   Mostly Cloudy
7:35 PM 89.6 °F 44.6 °F 21% 29.89 in 10.0 mi South 12.7 mph 20.7 mph N/A   Scattered Clouds
7:55 PM 89.6 °F 44.6 °F 21% 29.89 in 10.0 mi South 12.7 mph 16.1 mph N/A   Clear
8:15 PM 87.8 °F 44.6 °F 22% 29.90 in 10.0 mi South 12.7 mph - N/A   Clear
8:35 PM 87.8 °F 44.6 °F 22% 29.90 in 10.0 mi SSE 16.1 mph - N/A   Clear
8:55 PM 86.0 °F 44.6 °F 23% 29.91 in 10.0 mi South 9.2 mph - N/A   Clear
9:15 PM 84.2 °F 44.6 °F 25% 29.91 in 10.0 mi South 10.4 mph - N/A   Clear
9:35 PM 82.4 °F 44.6 °F 26% 29.91 in 10.0 mi SSE 11.5 mph - N/A   Clear
9:55 PM 80.6 °F 44.6 °F 28% 29.92 in 10.0 mi SSE 10.4 mph - N/A   Clear
10:15 PM 80.6 °F 44.6 °F 28% 29.92 in 10.0 mi South 11.5 mph - N/A   Scattered Clouds
10:35 PM 78.8 °F 44.6 °F 30% 29.93 in 10.0 mi South 12.7 mph - N/A   Clear
10:55 PM 78.8 °F 44.6 °F 30% 29.93 in 10.0 mi SSE 12.7 mph - N/A   Clear
11:15 PM 77.0 °F 44.6 °F 32% 29.94 in 10.0 mi SSE 12.7 mph - N/A   Clear
11:35 PM 77.0 °F 44.6 °F 32% 29.94 in 10.0 mi SSE 12.7 mph - N/A   Clear
11:55 PM 78.8 °F 44.6 °F 30% 29.94 in 10.0 mi South 13.8 mph - N/A   Clear